Wind_Speed
35 34 33 29 26 25 27 29 29 28 27 26 25 25 26 27 29 31 32 32 32 31 30 30 29 28 27 26 26 25 24 24 23 22 22 21 20 19 17 17 16 15 15 15 15 15 15 15 15 16 15 15 15 14 14 13 12 12 11 11 11 11 11 11 11 11 11 11 11 12 12 12 12 12 12 12 12 12 13 13 14 14 14 15 15 15
34 33 30 26 24 25 29 30 30 28 26 25 25 25 26 27 29 31 32 31 30 30 29 29 28 27 26 25 25 24 24 23 22 22 21 20 19 18 17 16 16 15 15 15 15 15 15 15 15 16 15 15 15 14 14 13 13 12 12 11 11 11 11 11 11 11 12 12 12 12 13 13 13 13 13 13 13 13 13 13 14 14 14 15 15 15
33 30 26 24 25 28 30 31 30 28 26 25 24 25 27 29 30 31 30 29 29 28 28 27 26 26 25 25 24 24 23 22 22 21 19 18 18 17 16 16 15 15 15 15 15 15 15 15 15 15 15 15 15 14 14 13 13 12 12 12 12 12 12 12 12 12 12 13 13 13 13 13 13 13 13 13 13 14 14 14 14 14 14 15 15 15
31 28 25 26 28 30 31 31 29 26 25 24 25 27 29 30 31 30 29 28 27 27 27 26 25 25 25 24 24 23 23 22 21 19 18 17 17 16 16 16 15 15 15 15 16 16 16 16 15 15 15 15 14 14 14 13 13 13 13 13 13 13 13 13 13 13 13 13 13 14 14 14 14 14 14 14 14 14 14 14 14 14 15 15 15 15
28 26 27 28 29 30 30 29 26 24 23 25 27 29 31 31 30 29 28 28 27 26 26 25 25 25 24 24 23 23 22 21 19 18 17 16 16 16 16 16 16 16 16 16 16 16 16 16 15 15 15 15 14 14 14 13 13 13 14 14 14 14 14 14 14 14 14 14 14 14 14 14 14 15 15 15 15 15 15 15 15 15 15 15 15 15
28 27 28 28 29 28 27 25 24 23 25 28 30 32 32 31 29 29 28 27 27 26 25 25 24 24 24 24 23 22 21 19 18 17 16 15 15 16 16 16 16 16 16 16 16 16 16 16 15 15 15 14 14 14 14 14 14 14 14 14 14 14 14 14 14 14 14 15 15 15 15 15 15 15 15 15 15 15 15 15 15 15 15 15 15 15
29 29 28 28 27 26 25 24 24 25 28 31 32 32 31 30 29 29 29 28 27 26 25 24 24 24 23 23 22 21 19 18 17 16 15 15 16 16 16 16 17 17 17 17 17 16 16 16 15 15 15 15 14 14 14 14 15 15 15 15 15 15 15 15 15 15 15 15 15 15 15 15 15 15 15 15 15 15 15 15 15 15 15 15 15 15
30 29 28 27 26 24 24 25 27 29 31 32 32 31 30 30 30 30 30 29 27 26 25 24 23 23 23 22 21 19 18 17 16 15 16 16 16 17 17 17 17 17 17 17 16 16 16 16 15 15 15 15 15 15 15 15 15 15 15 15 15 15 15 15 15 15 15 16 16 16 16 15 15 15 15 15 15 15 15 15 15 15 15 15 15 15
30 28 28 27 25 24 26 28 30 32 32 32 30 30 29 30 31 31 30 29 27 25 24 23 23 22 22 21 19 18 17 16 16 16 16 17 17 17 17 17 17 17 17 17 16 16 16 15 15 15 15 15 15 15 15 15 16 16 15 15 15 15 15 15 16 16 16 16 16 16 16 15 15 15 15 15 15 15 15 15 15 15 15 15 15 15
30 28 28 26 25 26 29 31 32 32 32 31 30 30 30 31 31 30 29 27 25 24 23 22 22 21 20 19 18 17 16 16 16 16 17 17 17 18 18 18 17 17 17 16 16 16 15 15 15 15 15 16 16 16 16 16 16 16 16 16 15 15 16 16 16 16 16 16 16 16 16 16 16 15 15 15 15 15 15 15 15 15 15 15 15 16
30 29 28 27 27 29 32 33 33 32 32 31 31 31 32 32 30 29 27 25 24 23 23 22 21 20 19 18 17 17 16 16 17 17 17 18 18 17 17 17 17 17 16 16 16 15 15 15 15 16 16 16 16 16 16 16 16 16 16 16 16 16 16 16 16 16 16 16 16 16 16 16 16 16 16 16 16 15 15 15 15 15 16 16 16 16
29 28 27 28 30 32 33 33 33 32 32 31 31 31 32 31 29 27 25 24 23 23 22 20 19 18 18 17 17 17 17 17 17 17 17 17 17 17 17 16 16 16 16 16 16 15 15 16 16 16 16 17 17 17 16 16 16 16 16 16 16 16 16 16 16 16 16 16 16 16 16 16 16 16 16 16 16 16 16 16 16 16 16 16 16 16
28 26 26 29 32 34 33 33 33 32 32 31 30 30 30 29 28 25 24 23 22 21 20 19 18 18 17 17 17 17 17 17 17 17 17 17 16 16 16 16 16 16 16 16 16 16 16 16 16 16 17 17 17 17 16 16 16 16 16 16 16 16 16 16 16 16 16 16 16 16 16 16 16 16 16 16 16 16 16 16 16 16 17 17 17 17
26 26 28 31 33 34 34 34 33 32 32 32 31 30 29 27 25 24 23 22 21 20 19 18 17 17 17 17 17 17 17 17 17 17 16 16 16 16 15 15 15 15 16 16 16 16 16 16 16 17 17 17 17 17 16 16 16 16 16 16 16 16 16 16 16 16 16 16 16 16 17 17 17 17 16 16 17 17 17 17 17 17 17 17 17 17
27 29 31 33 33 34 34 34 33 32 32 32 30 29 27 25 23 23 22 21 20 18 18 17 17 17 17 17 17 17 17 17 16 16 16 16 16 15 15 15 15 16 16 16 16 16 16 17 17 17 17 17 17 17 16 16 16 16 16 16 16 16 16 16 16 16 16 16 16 17 17 17 17 17 17 17 17 17 17 17 17 17 18 18 18 18
30 31 32 32 32 33 33 33 33 32 31 29 28 26 24 23 22 21 20 19 18 17 17 16 16 16 16 17 17 17 16 16 16 16 16 16 16 15 15 15 16 16 16 17 17 17 17 17 17 17 17 17 17 17 16 16 16 16 16 16 16 16 16 16 16 16 16 16 17 17 17 17 17 17 17 17 17 17 17 18 18 18 18 18 18 18
30 30 31 31 32 32 33 32 31 30 28 26 25 24 23 22 21 20 19 18 17 16 16 16 16 16 16 16 16 16 16 16 16 16 16 16 16 16 16 16 16 16 17 17 17 17 17 17 17 17 17 17 17 17 16 16 16 16 16 16 16 16 16 16 16 16 16 17 17 17 17 17 17 17 17 17 18 18 18 18 18 18 18 18 18 18
30 31 32 32 32 31 31 29 28 26 25 24 23 22 21 20 19 19 18 17 16 16 16 16 16 16 16 16 16 16 16 16 16 16 16 16 16 16 16 16 16 17 17 17 17 17 17 17 17 17 17 17 17 17 16 16 16 16 16 16 16 16 16 16 16 16 17 17 17 17 17 17 17 17 18 18 18 18 18 18 18 18 18 18 19 19
31 32 31 31 30 29 27 26 25 24 23 22 22 21 20 19 18 18 17 16 16 16 16 16 16 16 16 16 16 16 16 16 16 16 16 16 17 17 17 17 17 17 18 18 18 17 17 17 18 18 17 17 17 16 16 16 16 16 16 16 16 16 16 16 16 17 17 17 17 17 17 17 18 18 18 18 18 18 18 18 18 19 19 19 19 19
31 31 30 28 27 25 24 24 23 22 22 21 20 19 19 18 18 17 17 16 16 16 16 16 16 16 16 16 16 17 17 17 17 17 17 17 17 17 17 17 17 18 18 18 18 18 18 18 18 18 17 17 17 16 16 16 16 16 16 16 16 16 16 16 17 17 17 17 17 17 17 18 18 18 18 18 18 18 19 19 19 19 19 19 19 19
29 28 27 25 24 23 22 22 22 21 20 20 19 19 18 18 17 17 17 16 16 16 16 16 16 16 16 16 16 17 17 17 17 17 17 18 18 17 17 17 18 18 18 18 18 18 18 18 18 18 17 17 16 16 16 16 16 16 16 16 16 16 16 16 17 17 17 17 17 18 18 18 18 18 18 18 19 19 19 19 19 19 19 19 19 19
27 25 24 23 22 21 21 21 21 20 19 19 18 18 18 18 17 17 17 16 16 16 16 16 16 16 16 17 17 17 18 18 18 18 18 18 18 18 18 18 18 18 18 18 18 18 18 18 18 17 17 17 16 16 16 16 16 16 16 16 16 16 16 17 17 17 17 17 18 18 18 18 18 18 19 19 19 19 19 19 19 19 19 19 19 19
24 23 22 21 21 20 20 20 19 19 19 18 18 18 18 18 17 17 17 16 16 16 16 17 17 17 17 17 18 18 18 18 18 18 18 19 19 19 19 18 18 18 18 18 18 18 18 18 18 17 17 17 16 16 16 16 16 16 16 16 16 16 17 17 17 17 17 18 18 18 18 18 19 19 19 19 19 19 19 19 19 19 19 19 19 19
23 22 21 20 20 19 19 19 19 19 18 18 18 18 18 18 17 17 17 17 17 17 17 18 18 18 18 18 18 18 19 19 19 19 19 19 19 19 19 19 18 18 18 18 18 18 18 18 18 17 17 17 16 16 16 16 16 16 16 16 17 17 17 17 17 18 18 18 18 18 19 19 19 19 19 19 19 19 19 19 19 19 19 19 19 19
21 21 20 20 19 19 19 19 19 19 18 18 18 18 18 17 17 17 18 18 18 18 18 18 18 18 18 18 18 18 19 19 19 19 19 19 19 19 19 19 18 18 18 18 18 18 17 18 18 18 17 17 17 17 17 17 16 16 16 17 17 17 17 17 18 18 18 18 18 19 19 19 19 19 20 20 20 20 20 20 19 19 19 19 19 19
21 20 20 19 19 19 19 19 19 18 18 18 18 18 18 18 18 18 18 18 18 18 18 18 19 19 19 19 18 18 19 19 19 19 19 18 18 19 19 19 18 18 18 18 18 18 17 18 18 18 17 17 17 17 17 17 17 17 17 17 17 17 18 18 18 18 18 19 19 19 19 19 20 20 20 20 20 20 20 20 20 19 19 19 19 19
20 20 19 19 19 19 19 19 19 18 18 18 18 18 18 18 18 18 18 19 19 19 19 19 19 19 19 19 18 18 19 19 19 19 19 18 18 18 19 19 18 18 18 18 18 18 18 18 18 18 18 17 17 17 17 17 17 17 17 17 17 18 18 18 19 19 19 19 19 19 20 20 20 20 20 20 20 20 20 20 20 20 19 19 19 19
20 19 19 19 19 19 19 19 19 18 18 18 18 18 18 19 19 19 19 19 19 19 19 19 19 19 19 19 19 19 19 19 19 19 19 18 18 18 19 19 18 18 18 18 18 18 18 18 18 18 18 18 18 17 17 17 17 17 17 18 18 18 18 19 19 19 19 20 20 20 20 20 20 21 21 21 21 21 20 20 20 20 20 19 19 19
19 19 19 19 19 19 19 19 18 18 18 18 19 19 19 19 19 19 19 20 20 20 20 20 20 20 20 19 19 19 19 19 19 19 19 18 18 19 19 19 18 18 18 18 18 18 18 18 18 18 18 18 18 18 18 18 18 18 18 18 18 19 19 19 20 20 20 20 20 20 21 21 21 21 21 21 21 21 21 21 20 20 20 20 19 19
19 19 19 19 19 19 19 18 18 18 19 19 19 19 19 20 19 19 20 20 20 20 20 20 20 20 20 20 20 20 20 20 19 19 19 18 18 19 19 19 19 18 18 18 18 18 19 19 19 19 19 18 18 18 18 18 18 18 19 19 19 19 20 20 20 20 21 21 21 21 21 21 21 22 22 21 21 21 21 21 20 20 20 20 20 20
19 19 19 19 19 19 19 19 19 19 19 19 20 20 20 20 20 20 20 20 20 20 20 20 20 20 20 20 20 19 20 20 19 19 18 18 19 19 19 19 19 19 19 18 18 18 19 19 20 19 19 19 19 19 19 19 19 19 19 20 20 20 20 21 21 21 21 22 22 22 22 22 22 22 22 22 22 22 21 21 21 20 20 20 20 20
19 19 19 19 19 19 19 19 19 19 19 20 20 20 20 20 19 19 20 20 20 20 20 20 20 20 20 20 20 20 20 20 19 19 19 18 19 19 19 19 19 19 19 19 19 19 19 19 20 20 19 19 19 19 19 20 20 20 20 21 21 21 21 22 22 22 22 22 22 22 22 22 22 22 22 22 22 22 22 21 21 21 21 20 20 20
19 19 19 19 19 19 19 19 19 19 19 20 20 20 20 19 19 20 20 20 20 20 20 20 20 20 20 20 20 20 20 20 19 19 19 19 19 19 20 20 20 20 20 20 20 19 19 20 20 20 20 20 20 20 20 21 21 21 21 21 22 22 22 23 23 23 23 23 23 23 23 23 23 23 23 22 22 22 22 22 21 21 21 21 20 20
19 19 19 19 19 19 19 19 19 19 19 19 20 20 20 20 20 20 20 20 20 20 20 20 20 20 20 20 20 20 20 19 19 20 20 19 20 20 20 20 20 20 20 20 20 20 20 20 21 21 21 21 21 21 21 22 22 22 23 23 23 23 23 23 24 24 24 24 24 23 23 23 23 23 23 23 23 23 22 22 22 22 21 21 21 20
18 19 19 19 19 19 19 19 19 19 19 19 19 20 20 20 20 20 20 20 20 20 20 19 19 19 20 20 20 20 20 19 20 20 20 20 20 20 20 21 21 20 20 20 20 20 20 21 21 21 22 22 22 22 23 23 23 23 24 24 24 24 24 24 24 24 24 24 24 24 24 24 24 24 23 23 23 23 23 22 22 22 22 21 21 21
19 19 19 19 19 19 19 19 19 19 19 19 20 20 20 20 20 20 20 19 19 19 19 19 19 19 19 20 20 20 20 20 20 20 20 21 21 21 21 21 21 21 21 21 21 21 21 21 22 22 23 23 23 24 24 24 24 24 25 25 25 25 25 25 25 25 25 25 24 24 24 24 24 24 24 24 23 23 23 23 23 22 22 22 21 21
19 19 19 19 19 19 20 20 20 20 19 19 19 20 20 20 20 19 19 19 19 19 18 18 19 19 19 19 19 20 20 20 20 21 21 21 21 21 21 21 22 22 21 21 21 22 22 22 23 23 24 24 24 25 25 25 25 25 25 26 26 26 26 26 26 25 25 25 25 25 25 25 25 25 24 24 24 24 23 23 23 23 22 22 22 22
20 20 20 20 20 20 20 20 20 20 20 19 19 19 19 19 19 19 19 18 18 18 18 18 18 18 19 19 19 19 19 20 20 21 21 21 22 21 21 22 22 22 22 22 22 22 22 23 23 24 24 25 26 26 26 26 26 26 26 26 26 26 26 27 26 26 26 26 26 26 26 25 25 25 25 24 24 24 24 24 23 23 23 23 22 22
20 20 20 20 20 20 20 20 20 20 19 19 19 19 19 19 18 18 18 18 18 17 17 17 18 18 18 19 19 19 19 20 20 21 21 22 22 22 22 22 22 23 23 23 23 23 23 23 24 24 25 26 26 27 27 27 27 26 27 27 27 27 27 27 27 27 26 26 26 26 26 26 26 25 25 25 25 24 24 24 24 23 23 23 23 23
20 20 20 20 20 20 20 20 20 20 19 19 19 19 19 18 18 18 18 18 17 17 17 17 18 18 18 19 19 19 19 20 20 21 21 21 22 22 22 22 23 23 23 23 23 23 24 24 24 25 26 26 27 27 28 28 28 28 28 27 27 28 28 28 27 27 27 27 27 27 27 26 26 26 25 25 25 24 24 24 24 24 24 23 23 23
20 20 20 20 20 20 20 20 20 20 19 19 19 19 19 19 18 18 18 18 18 17 17 18 18 18 18 19 19 19 19 20 20 20 21 21 22 22 23 23 23 24 24 24 24 24 24 25 25 25 26 26 27 27 28 28 29 29 29 29 29 29 29 29 28 28 28 28 28 27 27 27 26 26 26 25 25 25 24 24 24 24 24 24 24 23
21 21 20 20 20 20 20 20 20 20 20 19 19 19 19 19 19 19 18 18 18 18 18 18 18 18 19 19 19 19 20 20 20 20 21 21 22 22 23 23 24 24 24 24 25 25 25 26 26 26 26 27 27 27 27 29 30 31 31 30 30 30 30 30 29 29 28 28 28 28 28 27 27 26 26 25 25 25 25 25 25 25 24 24 24 24
21 21 21 20 20 20 20 20 20 20 20 20 20 20 20 20 19 19 19 19 19 19 19 19 19 19 19 19 20 20 20 20 21 21 21 22 22 23 23 23 24 24 25 25 25 26 26 27 27 27 27 27 27 27 27 29 30 31 32 32 32 31 31 30 30 30 29 29 28 28 28 27 27 26 26 26 25 26 26 26 25 25 25 25 24 24
22 21 21 21 21 21 21 21 21 20 20 20 20 20 20 20 20 20 20 20 20 20 20 20 20 20 20 20 21 21 21 21 21 22 22 22 23 23 23 24 24 25 25 25 26 26 27 27 28 28 28 28 27 27 27 29 30 32 33 33 33 32 31 31 31 30 30 29 29 29 28 28 27 26 26 26 26 26 26 26 26 25 25 25 25 25
22 21 21 21 21 21 21 21 21 21 21 21 21 21 21 21 21 21 21 20 20 20 20 21 21 21 21 22 22 22 22 22 22 23 23 23 23 24 24 24 25 25 25 26 26 27 27 28 28 29 29 28 28 28 28 29 30 31 33 33 33 32 32 32 31 31 30 30 29 29 28 28 27 26 26 26 26 27 27 26 26 26 26 25 25 25
22 22 21 21 21 21 21 22 22 22 22 22 22 22 22 22 22 22 22 22 22 22 22 22 22 22 23 23 23 23 23 23 24 24 24 24 25 25 25 25 25 26 26 26 27 27 28 28 28 29 29 29 28 28 28 29 30 31 32 33 33 33 32 32 32 32 31 31 30 29 29 28 27 27 26 27 27 27 27 27 27 26 26 26 25 25
22 22 22 22 22 22 22 22 23 23 23 23 23 23 23 23 23 23 23 23 23 23 23 23 23 23 24 24 25 25 24 25 25 25 26 26 26 26 27 27 27 27 27 27 28 28 29 29 29 29 29 29 29 29 29 30 30 31 32 33 33 33 32 32 32 32 32 31 31 30 29 28 28 27 27 27 27 27 27 27 27 27 26 26 26 26
23 23 23 23 23 23 23 23 24 24 24 24 24 24 24 24 24 24 24 24 24 24 24 24 24 24 25 25 25 26 26 26 26 26 27 27 28 28 28 29 29 29 29 29 29 29 29 30 30 30 29 29 29 29 30 31 31 32 32 32 32 32 32 32 33 33 32 32 31 30 29 29 28 28 27 27 27 27 27 27 27 27 27 26 26 26
24 24 24 24 24 24 24 24 25 25 25 26 26 26 26 26 26 25 26 26 25 25 25 25 25 25 25 26 26 26 26 27 27 28 28 29 29 30 30 30 30 30 30 30 30 30 30 30 30 30 30 30 29 30 30 31 32 32 32 32 32 32 32 32 33 33 33 32 31 31 30 29 29 28 28 28 27 27 27 28 27 27 27 27 27 26
25 25 25 25 25 25 26 26 26 26 27 27 27 27 27 27 27 27 27 27 26 26 26 26 26 26 26 26 27 27 28 28 28 29 30 30 30 30 31 31 31 31 31 31 31 30 30 30 30 30 30 30 30 30 30 31 32 32 32 32 32 32 32 32 32 33 32 32 31 30 30 29 29 29 29 28 28 27 27 27 27 27 28 27 27 27
26 26 26 26 26 27 27 27 28 28 28 28 29 29 29 28 28 28 28 27 27 27 27 27 27 27 27 27 28 28 29 29 30 30 31 31 31 31 31 31 31 32 31 31 31 31 31 30 30 30 30 31 32 32 31 31 32 32 32 32 32 32 32 32 32 32 32 31 31 30 30 30 30 30 29 29 28 27 27 27 27 27 28 28 28 27
Wind_Direction
280 280 280 281 280 277 276 282 285 286 283 280 277 277 278 280 281 282 283 283 285 288 290 290 289 290 291 292 293 293 292 291 290 288 286 284 281 278 275 271 267 265 263 262 262 263 265 267 269 271 271 270 268 266 264 262 262 263 264 266 267 269 270 270 271 271 271 272 273 273 274 275 276 278 281 284 287 290 292 293 294 295 297 298 300 301
278 278 279 280 274 268 270 278 283 283 281 280 279 280 280 280 280 280 281 284 288 291 291 290 289 291 292 292 292 291 290 289 287 286 283 281 278 275 272 268 266 264 263 263 264 265 267 268 269 270 270 269 267 265 263 263 263 264 266 268 269 270 271 272 272 271 271 271 271 271 272 273 274 277 279 282 284 286 287 287 288 290 291 293 294 296
276 277 279 275 268 266 269 276 280 280 280 280 281 281 280 279 278 279 282 287 291 292 290 290 290 291 292 291 291 290 289 287 286 283 280 277 274 271 268 266 264 264 264 265 266 268 268 269 269 269 268 267 265 264 263 263 265 266 268 270 271 271 272 272 272 272 271 271 270 271 271 273 274 276 278 279 280 281 281 281 282 284 285 287 289 291
275 276 274 269 266 268 272 276 278 278 279 279 280 279 278 277 277 280 286 291 293 292 290 291 291 291 291 290 289 288 287 286 284 281 277 273 270 267 265 264 263 264 265 267 268 269 270 270 269 268 267 265 263 263 263 264 266 268 270 271 271 272 272 272 272 272 272 272 272 272 272 273 274 275 275 275 275 275 276 276 277 279 280 282 284 286
274 273 270 267 268 270 274 275 276 275 274 274 275 275 275 275 278 284 292 295 295 292 291 290 290 290 289 288 287 286 285 283 281 278 274 270 266 264 263 263 263 265 267 268 269 270 271 270 269 267 265 264 262 262 263 265 267 268 270 271 271 272 272 272 272 272 272 272 272 272 272 272 272 272 272 271 272 272 273 273 274 275 277 279 281 283
272 271 269 269 270 272 273 273 271 269 268 268 269 270 271 275 282 290 296 296 294 292 290 289 288 287 287 286 285 284 283 281 278 274 271 267 264 263 263 263 265 266 268 269 270 270 270 269 267 265 264 263 262 262 264 265 267 268 269 270 271 271 271 271 271 271 271 271 271 270 270 270 269 269 269 269 270 270 271 272 273 275 276 278 280 282
268 269 270 271 271 271 271 269 265 262 260 261 264 268 273 281 289 295 297 295 293 291 289 287 286 285 284 284 283 281 280 277 274 271 269 266 265 265 265 266 267 268 269 269 269 269 268 267 265 264 262 262 262 263 264 266 267 268 268 269 269 269 269 269 269 269 269 268 268 268 268 268 268 268 268 269 269 270 271 272 274 275 277 279 281 282
262 266 270 271 271 270 267 263 259 256 256 259 265 273 282 289 294 296 295 293 291 288 286 284 283 283 282 281 279 278 276 274 271 269 268 267 267 267 268 268 269 269 269 268 267 266 265 264 262 261 261 261 262 264 265 266 266 267 267 268 268 268 268 268 267 267 267 267 267 268 268 268 268 268 269 269 270 271 272 273 275 276 278 280 282 283
259 265 271 272 270 267 261 257 255 255 257 264 273 283 291 294 295 293 291 289 287 284 283 282 281 280 279 277 275 274 272 271 269 269 269 269 269 269 269 269 269 269 268 266 265 263 262 260 260 259 260 261 262 263 264 265 266 266 266 267 267 267 267 266 266 267 267 267 268 269 269 269 270 270 270 270 271 272 273 275 276 278 280 281 283 284
262 269 272 272 267 261 256 253 254 258 263 272 281 288 293 294 292 290 287 285 282 280 279 279 278 277 275 273 272 270 269 269 269 269 269 269 270 270 270 269 268 267 266 265 263 261 260 259 258 259 260 261 262 263 264 264 265 266 266 266 266 266 267 267 267 268 268 269 270 270 271 271 271 271 271 272 273 274 275 276 278 279 281 283 284 285
268 272 272 268 262 257 254 253 257 263 271 279 286 290 290 290 288 285 282 280 279 278 277 276 274 272 270 269 268 268 269 269 269 270 270 270 269 269 268 267 266 265 264 263 262 260 259 259 259 259 260 261 262 263 263 264 265 265 266 266 266 267 267 267 268 269 270 271 271 272 272 272 272 273 273 274 274 275 277 278 279 281 282 284 285 286
271 271 269 263 258 255 255 258 263 270 278 286 289 289 288 285 283 280 278 277 276 275 275 273 271 268 267 266 267 268 269 270 270 270 269 269 268 267 266 265 263 263 262 261 261 260 260 260 260 261 261 262 263 263 264 265 265 266 266 266 267 267 267 268 269 270 271 271 272 273 273 273 274 274 275 276 276 277 278 279 281 282 284 285 286 287
270 268 264 261 259 259 262 267 273 280 286 289 288 285 283 280 278 276 274 273 273 272 271 269 267 266 265 266 267 268 269 270 270 269 269 268 267 266 264 263 262 261 260 260 260 260 260 260 261 261 262 262 263 264 265 265 265 266 266 266 266 267 267 268 269 271 272 272 273 274 274 275 275 276 277 277 278 279 280 281 283 284 285 286 287 288
266 262 259 258 260 263 268 274 280 285 286 285 283 280 278 276 274 272 271 270 269 268 266 265 265 265 265 266 268 268 269 269 269 268 268 267 266 265 264 264 263 262 261 261 260 260 260 261 261 261 262 262 263 264 265 265 265 265 266 266 267 267 268 269 271 272 273 274 274 275 276 276 277 278 278 279 280 281 281 283 284 285 286 287 288 289
259 256 256 258 263 268 273 278 281 282 281 279 277 275 273 271 270 269 268 267 266 264 262 262 262 263 265 266 267 267 267 268 268 267 267 267 266 266 266 265 265 265 264 263 263 262 262 261 261 261 262 263 263 264 265 265 265 266 266 267 267 268 269 271 272 274 274 275 276 277 277 278 278 279 280 280 281 282 283 284 285 286 287 288 289 289
256 257 261 266 270 274 276 277 278 277 276 274 272 270 268 267 266 265 265 263 262 261 260 260 261 263 264 265 266 266 266 267 267 267 267 267 267 267 267 267 267 267 266 265 265 264 264 263 263 263 263 263 264 265 265 265 266 266 267 267 269 270 271 273 274 275 276 277 277 278 278 279 279 280 280 281 282 282 283 284 285 286 287 288 289 290
261 266 271 274 276 276 275 275 274 272 270 268 266 265 264 263 262 262 261 260 259 258 259 260 261 262 263 264 265 265 266 267 267 267 267 268 269 269 269 269 268 268 267 266 266 265 265 264 264 264 264 264 265 265 266 266 266 267 267 269 270 271 272 274 275 276 277 278 278 279 279 279 280 280 281 281 282 283 284 285 286 287 288 289 289 290
269 273 274 275 274 273 272 270 269 267 264 263 262 261 260 260 260 259 258 257 257 257 258 259 260 260 261 264 265 266 266 267 267 268 268 269 269 270 270 270 269 268 267 267 266 265 265 264 264 264 265 265 265 265 266 266 267 267 268 269 271 272 274 275 276 277 278 278 278 279 279 279 280 280 281 282 283 284 284 285 286 287 288 289 290 290
272 273 272 271 270 269 267 265 263 261 260 259 258 258 258 257 256 255 254 254 255 256 257 258 259 260 262 264 265 266 267 268 268 269 269 270 270 270 271 270 269 268 268 267 266 266 265 264 264 264 265 265 265 266 266 266 267 268 269 270 271 273 274 276 277 277 278 278 279 279 279 280 280 281 282 282 283 284 285 286 287 288 288 289 290 291
272 271 269 267 265 264 262 260 259 257 257 256 256 256 255 254 253 252 252 253 254 255 256 258 260 261 263 264 266 268 269 269 270 270 271 271 271 271 270 270 269 269 268 268 267 266 265 265 264 265 265 265 265 266 266 267 267 268 269 271 272 274 275 276 277 278 278 279 279 280 280 280 281 282 282 283 284 284 285 286 287 288 289 289 290 291
270 267 265 263 261 259 257 256 255 255 255 255 254 253 252 251 251 251 251 252 253 255 256 258 260 262 263 265 267 268 269 270 271 272 272 272 272 271 270 270 269 268 268 268 268 267 266 265 265 265 265 265 265 266 266 267 267 268 270 271 273 275 276 277 278 278 279 279 280 280 281 281 282 282 283 283 284 285 285 286 287 288 289 290 291 291
265 263 260 258 257 255 254 253 253 253 252 252 251 251 250 250 250 250 251 252 254 255 257 259 261 262 264 265 267 268 269 271 271 272 272 273 272 272 271 270 269 268 268 268 268 267 267 266 266 266 266 266 266 266 266 267 268 269 271 272 274 275 276 278 278 279 279 280 280 281 281 282 282 283 283 284 284 285 285 286 287 288 289 290 291 292
261 258 257 255 253 252 251 251 250 250 250 249 249 249 249 250 250 251 252 254 255 257 258 260 261 263 264 266 267 268 269 270 271 272 272 272 272 272 271 270 269 268 267 267 267 267 267 266 266 266 266 265 266 266 266 267 268 269 271 273 275 276 277 278 279 279 280 280 281 281 282 282 282 283 283 284 284 285 285 286 287 288 289 290 291 292
257 255 254 252 251 249 248 248 247 247 247 247 247 248 249 250 251 253 254 256 257 259 260 262 263 264 265 266 267 268 269 269 270 271 271 271 271 271 271 270 268 268 267 267 266 266 266 266 266 266 266 265 265 265 266 267 268 270 272 273 275 276 277 278 279 280 280 281 281 282 282 282 282 283 283 284 284 285 285 286 287 288 289 290 291 291
254 252 251 250 248 247 245 245 244 244 244 245 246 247 248 250 252 254 256 258 260 261 263 264 265 265 266 266 267 268 268 269 269 270 270 270 270 270 269 269 268 267 267 266 266 265 265 265 265 265 265 265 265 265 266 267 269 271 272 274 275 277 278 279 279 280 280 281 282 282 282 282 283 283 283 284 284 285 285 286 287 288 289 290 290 291
251 250 248 247 245 244 243 242 242 242 243 244 246 247 249 251 253 256 258 260 261 263 264 265 265 266 266 266 267 267 268 268 268 268 268 268 268 268 268 267 267 266 266 266 266 265 265 265 265 265 265 265 265 265 266 267 269 271 273 274 276 277 278 279 280 280 281 281 282 282 283 283 283 283 284 284 285 285 286 287 287 288 289 289 290 290
249 248 246 244 243 241 240 240 240 241 243 244 246 249 251 253 255 257 259 261 262 263 264 265 265 265 266 266 266 267 267 267 267 267 267 267 266 266 266 266 266 266 265 266 266 265 265 265 265 265 265 265 265 265 266 268 270 272 274 275 276 277 278 279 280 281 281 282 282 283 283 283 284 284 284 285 285 286 286 287 287 288 289 289 290 290
247 245 243 242 240 239 239 239 240 242 243 246 248 250 252 254 256 258 260 261 262 263 264 264 265 265 266 266 266 266 265 266 266 266 265 265 265 265 265 265 265 265 265 265 265 266 265 265 265 265 265 265 265 266 268 269 271 272 274 276 277 278 279 280 280 281 282 282 283 283 284 284 284 284 285 285 285 286 286 287 287 288 288 289 289 290
244 242 241 239 239 238 239 240 241 243 245 247 250 252 254 256 257 259 260 262 263 264 264 265 265 265 266 266 266 265 265 264 264 264 264 264 264 264 264 265 265 265 265 265 266 266 266 266 265 265 265 266 266 267 268 270 271 273 275 276 277 278 279 280 281 282 283 283 284 284 284 284 285 285 285 285 285 286 286 286 287 288 288 288 289 289
242 240 239 239 238 239 240 241 243 245 247 249 251 253 255 257 258 260 261 262 263 264 264 265 266 266 266 266 265 265 264 264 264 264 264 264 264 264 264 264 265 265 265 265 266 266 266 266 266 266 266 266 267 268 269 271 272 274 275 277 278 279 280 281 282 282 283 284 284 284 284 284 285 285 285 285 285 285 286 286 286 287 287 287 288 288
240 239 239 239 239 240 241 243 244 246 248 250 252 255 256 258 260 261 262 263 264 264 265 265 266 266 266 265 264 264 264 265 265 264 263 263 263 263 264 264 264 265 265 265 266 266 266 267 267 267 267 267 268 269 270 272 273 275 276 277 278 279 280 281 282 282 283 283 284 284 284 284 284 285 285 285 285 285 285 285 286 285 286 286 286 287
238 238 238 239 240 241 242 244 246 248 250 252 255 256 258 260 261 262 263 264 264 265 265 265 265 265 265 265 264 263 264 264 265 264 264 263 263 263 264 264 264 265 266 266 266 265 265 266 267 267 267 268 268 270 271 273 274 275 276 278 279 280 280 281 282 282 282 283 283 283 284 284 284 285 285 285 285 285 285 285 284 284 284 284 285 285
237 237 238 239 240 242 244 246 248 250 253 255 257 259 260 262 263 263 264 264 264 264 264 264 264 264 264 264 264 263 263 264 264 264 264 263 263 263 264 264 265 265 266 266 266 266 265 265 266 267 268 268 269 270 272 273 275 276 277 278 279 280 280 281 281 281 282 282 283 283 284 284 284 284 284 284 284 284 284 283 283 283 283 283 283 284
237 237 239 240 242 244 246 249 251 253 255 257 259 261 262 263 263 264 264 264 264 263 263 263 262 262 263 263 263 263 263 263 263 264 264 263 263 264 264 265 265 265 266 266 266 266 266 266 266 267 268 268 269 270 271 273 275 276 277 278 279 279 280 280 281 281 281 282 283 283 284 284 284 284 284 283 283 283 282 282 282 282 281 282 282 282
238 239 241 243 245 247 249 251 254 256 258 259 261 262 263 263 263 263 263 263 262 262 262 262 262 262 262 262 262 263 263 263 263 263 263 264 264 264 265 265 265 265 266 266 266 266 266 266 267 267 268 268 269 271 272 273 274 276 277 278 279 279 279 280 280 281 281 282 282 283 283 283 283 283 283 282 282 281 281 281 280 280 280 280 281 281
240 242 243 245 247 249 252 254 256 258 259 261 262 262 263 263 263 263 262 262 262 261 261 261 261 261 261 262 262 263 263 263 263 263 264 264 264 265 265 265 266 266 266 266 266 266 267 267 268 268 268 269 270 271 272 273 275 276 277 278 278 279 279 279 280 280 280 281 282 282 282 282 282 282 281 281 280 280 280 279 279 279 279 279 279 280
242 244 246 247 249 252 254 256 257 258 260 261 261 262 262 262 262 262 262 262 262 261 262 262 262 262 262 263 263 264 264 264 264 265 265 266 266 266 266 266 267 267 266 266 266 267 267 268 269 269 270 271 271 272 273 274 275 276 277 278 278 278 278 279 279 279 280 280 280 281 281 281 280 280 280 279 279 279 278 278 278 278 278 278 279 279
243 245 247 249 251 253 255 256 257 258 259 259 260 260 260 261 261 261 261 262 262 262 262 262 263 263 264 264 265 265 266 266 266 267 267 267 267 267 267 267 268 268 268 267 267 267 268 268 269 270 271 272 273 273 274 274 275 276 277 277 278 278 278 278 279 279 279 279 280 280 279 279 279 279 279 278 278 278 278 278 278 278 278 278 278 279
244 246 249 251 252 254 255 257 258 258 259 259 259 259 259 259 260 260 261 261 261 262 263 263 264 265 266 266 267 267 268 268 269 269 269 270 270 270 269 269 269 269 269 269 268 268 268 269 270 270 271 273 274 275 275 276 276 276 276 276 277 278 278 278 278 279 279 279 279 279 279 279 278 278 278 277 277 277 277 277 277 278 278 278 279 279
246 248 250 252 254 255 257 258 259 259 259 259 259 259 259 259 259 259 260 260 261 261 262 263 264 265 266 267 268 269 270 270 271 271 272 272 272 272 272 271 271 271 271 271 270 270 270 270 270 271 272 273 274 275 277 277 277 277 277 277 277 277 278 278 278 278 279 278 278 278 278 278 278 277 277 277 277 276 276 276 277 277 278 278 278 278
248 250 251 253 255 256 257 258 259 259 260 260 260 260 260 260 260 259 260 260 260 261 261 262 264 265 266 267 268 269 270 271 272 273 273 274 274 274 274 274 273 273 273 273 272 272 271 271 271 272 272 273 274 276 277 278 278 278 278 278 278 278 278 278 278 278 278 278 278 278 277 277 277 276 276 276 276 276 276 276 276 276 276 277 277 276
247 249 251 252 253 255 256 257 258 259 259 260 260 260 260 260 260 260 260 260 260 261 261 262 263 264 266 267 268 269 270 271 272 273 274 274 275 275 276 276 275 275 275 275 274 274 274 273 273 273 273 274 275 276 278 279 279 280 280 279 279 279 279 279 279 278 278 277 277 277 276 276 276 276 276 275 275 275 274 274 274 274 275 275 275 275
247 248 249 251 252 253 254 255 256 257 258 258 259 259 260 260 260 260 260 261 261 262 263 263 264 265 266 267 268 269 270 271 272 273 274 274 275 276 276 276 277 276 276 276 276 276 275 275 275 275 275 276 276 277 278 280 280 280 280 280 280 280 280 280 279 279 278 277 277 276 276 275 275 275 275 274 274 273 273 273 273 273 273 274 274 274
246 248 249 250 251 252 253 255 255 256 257 257 258 259 259 260 260 261 262 262 263 263 264 265 266 266 267 268 269 270 271 272 273 273 274 275 275 276 276 277 277 277 277 277 276 276 276 276 277 276 277 277 278 279 279 280 280 280 281 281 281 281 280 280 280 279 278 277 276 276 275 275 275 274 274 273 273 272 272 272 272 273 273 273 273 273
247 248 249 250 251 252 254 255 256 256 257 257 258 259 259 260 261 262 262 263 264 265 266 266 267 268 269 269 270 271 272 273 274 274 275 275 275 276 276 277 277 278 278 278 277 277 277 277 277 278 278 279 279 280 280 279 279 280 280 281 281 281 281 281 280 280 278 277 276 276 275 274 274 273 273 272 272 272 272 272 272 272 272 273 273 273
248 249 250 251 252 253 255 256 257 258 258 259 259 259 260 261 262 262 263 264 265 265 266 267 268 269 270 270 271 272 273 273 274 275 275 276 276 276 277 277 278 278 279 279 279 278 278 278 278 278 279 279 280 280 280 279 278 279 279 280 281 281 281 281 280 279 279 278 277 276 275 274 273 272 272 271 271 271 271 272 272 272 272 273 273 273
249 250 251 252 253 255 256 257 258 259 259 260 260 261 261 262 263 263 264 265 265 266 267 268 268 269 270 271 271 272 273 273 274 275 275 276 277 277 278 278 278 279 279 279 279 279 279 279 279 278 279 279 280 280 279 279 279 278 279 279 280 280 280 280 280 279 278 278 277 276 275 274 273 272 271 270 270 271 271 272 272 272 273 273 274 274
250 251 252 253 255 256 257 258 259 260 260 261 262 262 262 263 263 264 265 266 266 267 267 268 268 269 270 270 271 272 272 273 274 274 275 276 277 277 278 278 279 279 280 280 280 280 280 279 279 279 279 279 279 279 279 279 279 279 279 279 279 280 279 279 278 278 278 277 276 276 275 274 272 271 270 270 270 270 271 271 272 273 274 274 274 275
252 253 254 255 256 257 258 259 260 260 261 262 263 263 264 264 265 265 266 267 267 268 268 268 269 269 270 270 271 272 273 273 274 275 275 276 276 277 278 278 279 279 280 280 280 280 280 280 280 280 279 279 279 279 279 279 279 279 279 279 279 278 278 277 277 276 276 276 276 275 274 274 272 271 270 269 269 269 270 271 272 273 274 274 275 275
254 254 255 256 257 258 259 260 260 261 262 263 263 264 265 265 266 266 267 268 268 269 269 269 269 270 270 271 272 273 274 275 275 275 276 276 276 277 277 278 278 279 279 279 279 279 279 279 279 280 280 280 280 280 279 279 279 279 279 279 278 277 276 275 275 275 275 275 274 274 273 273 272 271 270 269 268 269 269 270 272 273 273 274 275 275
255 256 256 257 258 259 259 260 261 262 262 263 264 265 265 266 267 267 268 268 269 269 269 270 270 270 271 272 273 274 275 276 276 276 276 276 276 277 277 278 278 279 279 279 279 280 280 279 279 280 281 281 281 280 280 279 279 279 278 278 277 276 275 274 274 273 273 273 273 272 271 271 270 270 269 268 268 268 268 269 270 271 272 273 274 275
Height
3098 3099 3098 3098 3099 3100 3100 3099 3098 3098 3098 3098 3097 3097 3097 3097 3097 3097 3096 3095 3094 3093 3093 3092 3092 3091 3090 3090 3090 3089 3089 3088 3088 3088 3087 3087 3087 3087 3087 3087 3087 3087 3087 3087 3087 3087 3087 3087 3087 3087 3087 3088 3088 3088 3088 3088 3088 3088 3088 3088 3088 3088 3088 3088 3088 3088 3088 3088 3088 3087 3087 3087 3087 3087 3086 3086 3086 3085 3085 3085 3085 3085 3084 3084 3084 3083
3096 3096 3096 3096 3097 3098 3097 3097 3097 3097 3096 3096 3096 3096 3096 3096 3095 3095 3094 3093 3092 3091 3091 3090 3089 3089 3088 3088 3087 3087 3087 3087 3086 3086 3086 3086 3085 3085 3085 3085 3085 3086 3086 3086 3086 3086 3086 3086 3086 3086 3086 3086 3087 3087 3087 3087 3087 3087 3087 3087 3087 3087 3087 3087 3087 3087 3087 3087 3087 3087 3086 3086 3086 3085 3085 3085 3085 3084 3084 3084 3084 3084 3083 3083 3083 3082
3093 3093 3094 3095 3096 3096 3095 3095 3095 3094 3094 3094 3094 3094 3094 3094 3093 3092 3092 3091 3090 3089 3088 3087 3087 3087 3086 3086 3086 3085 3085 3085 3085 3084 3084 3084 3084 3084 3084 3084 3084 3084 3084 3084 3084 3084 3084 3085 3085 3085 3085 3085 3085 3085 3085 3085 3085 3085 3085 3085 3085 3086 3086 3086 3086 3086 3086 3086 3085 3085 3085 3085 3084 3084 3084 3084 3084 3084 3083 3083 3083 3083 3082 3082 3082 3082
3091 3091 3092 3093 3094 3093 3093 3093 3092 3092 3092 3092 3092 3092 3092 3092 3091 3091 3090 3089 3088 3087 3086 3086 3085 3085 3084 3084 3084 3083 3083 3083 3083 3083 3083 3083 3083 3083 3083 3083 3083 3083 3083 3083 3083 3083 3083 3083 3083 3083 3084 3084 3084 3084 3084 3084 3084 3084 3084 3084 3084 3084 3084 3084 3084 3084 3084 3084 3084 3084 3084 3083 3083 3083 3083 3083 3083 3083 3082 3082 3082 3082 3082 3081 3081 3081
3089 3090 3090 3091 3091 3091 3091 3090 3090 3090 3090 3090 3090 3090 3089 3089 3089 3088 3087 3087 3086 3085 3084 3084 3083 3083 3082 3082 3082 3082 3082 3082 3081 3081 3081 3081 3081 3082 3082 3082 3082 3082 3082 3082 3082 3082 3082 3082 3082 3082 3082 3082 3083 3083 3083 3083 3083 3083 3083 3083 3083 3083 3083 3083 3083 3083 3083 3083 3082 3082 3082 3082 3082 3082 3082 3082 3082 3082 3082 3081 3081 3081 3080 3080 3080 3079
3087 3087 3088 3088 3088 3088 3088 3088 3088 3088 3089 3088 3087 3087 3087 3087 3086 3086 3085 3085 3084 3083 3082 3082 3082 3081 3081 3080 3080 3080 3080 3080 3080 3080 3080 3080 3080 3080 3080 3080 3080 3080 3080 3080 3080 3080 3080 3081 3081 3081 3081 3081 3082 3082 3082 3082 3082 3082 3082 3082 3082 3082 3082 3082 3082 3082 3082 3082 3081 3081 3081 3081 3081 3081 3081 3081 3081 3081 3080 3080 3080 3079 3079 3079 3078 3078
3085 3085 3086 3086 3086 3086 3086 3086 3087 3087 3087 3086 3085 3085 3084 3084 3084 3083 3083 3082 3082 3081 3081 3080 3080 3079 3079 3079 3079 3078 3078 3078 3078 3078 3078 3078 3079 3079 3079 3079 3079 3079 3079 3079 3079 3079 3079 3079 3079 3080 3080 3080 3080 3080 3081 3081 3081 3081 3081 3081 3081 3081 3081 3081 3081 3081 3080 3080 3080 3080 3080 3080 3080 3080 3080 3080 3079 3079 3079 3079 3078 3078 3078 3077 3077 3077
3082 3083 3083 3084 3084 3084 3084 3085 3085 3085 3084 3083 3082 3082 3082 3082 3081 3081 3080 3080 3079 3079 3079 3078 3078 3078 3077 3077 3077 3077 3077 3077 3077 3077 3077 3077 3077 3077 3077 3077 3077 3077 3077 3077 3078 3078 3078 3078 3078 3078 3079 3079 3079 3079 3079 3079 3079 3079 3079 3079 3079 3079 3079 3079 3079 3079 3079 3079 3079 3079 3079 3079 3079 3079 3078 3078 3078 3078 3078 3077 3077 3077 3077 3076 3076 3076
3080 3081 3081 3081 3081 3082 3082 3082 3082 3082 3081 3081 3080 3080 3079 3079 3079 3079 3078 3078 3077 3077 3077 3077 3076 3076 3076 3076 3075 3075 3076 3076 3076 3076 3076 3076 3076 3076 3076 3076 3076 3076 3076 3076 3076 3077 3077 3077 3077 3077 3077 3078 3078 3078 3078 3078 3078 3078 3078 3078 3078 3078 3078 3078 3078 3078 3078 3078 3078 3078 3078 3078 3077 3077 3077 3077 3077 3077 3076 3076 3076 3076 3075 3075 3075 3074
3078 3079 3079 3079 3079 3080 3080 3079 3079 3079 3079 3078 3078 3077 3077 3077 3077 3077 3076 3076 3075 3075 3075 3075 3075 3075 3074 3074 3074 3074 3074 3074 3074 3074 3074 3074 3074 3074 3074 3074 3074 3074 3075 3075 3075 3075 3076 3076 3076 3076 3076 3077 3077 3077 3077 3077 3077 3077 3077 3077 3077 3077 3077 3077 3077 3077 3077 3077 3077 3077 3076 3076 3076 3076 3076 3076 3075 3075 3075 3075 3074 3074 3074 3073 3073 3073
3076 3077 3077 3077 3077 3077 3077 3077 3077 3077 3077 3076 3075 3075 3075 3075 3075 3074 3074 3074 3073 3073 3073 3073 3073 3073 3073 3072 3072 3072 3072 3072 3073 3073 3073 3073 3073 3073 3073 3073 3073 3073 3073 3073 3074 3074 3074 3074 3075 3075 3075 3075 3075 3075 3075 3075 3075 3075 3075 3075 3075 3075 3075 3075 3075 3075 3075 3075 3075 3075 3075 3075 3075 3074 3074 3074 3074 3074 3073 3073 3073 3072 3072 3072 3072 3072
3075 3075 3075 3075 3075 3075 3074 3074 3074 3074 3074 3073 3073 3073 3073 3073 3072 3072 3072 3072 3072 3071 3071 3071 3071 3071 3071 3071 3071 3071 3071 3071 3071 3071 3071 3071 3071 3072 3072 3072 3072 3072 3072 3072 3072 3072 3073 3073 3073 3073 3073 3074 3074 3074 3074 3074 3074 3074 3074 3074 3074 3074 3074 3074 3074 3074 3074 3074 3074 3073 3073 3073 3073 3073 3073 3072 3072 3072 3072 3072 3071 3071 3071 3071 3070 3070
3072 3073 3073 3073 3072 3072 3072 3072 3071 3071 3071 3071 3071 3071 3071 3071 3071 3070 3070 3070 3070 3070 3070 3070 3070 3070 3070 3069 3069 3070 3070 3070 3070 3070 3070 3070 3070 3070 3070 3070 3070 3071 3071 3071 3071 3071 3072 3072 3072 3072 3072 3072 3072 3072 3072 3072 3072 3072 3072 3072 3072 3072 3072 3072 3072 3072 3072 3072 3072 3072 3072 3072 3072 3071 3071 3071 3071 3070 3070 3070 3070 3069 3069 3069 3069 3068
3071 3071 3071 3071 3070 3070 3069 3069 3068 3068 3069 3069 3069 3069 3068 3068 3068 3068 3068 3068 3068 3068 3068 3068 3068 3068 3068 3068 3068 3068 3068 3068 3068 3068 3068 3068 3068 3068 3069 3069 3069 3069 3069 3069 3070 3070 3070 3070 3071 3071 3071 3071 3071 3071 3071 3071 3071 3071 3071 3071 3071 3071 3071 3071 3071 3071 3071 3071 3071 3070 3070 3070 3070 3070 3069 3069 3069 3069 3068 3068 3068 3068 3067 3067 3067 3067
3068 3068 3068 3068 3068 3067 3067 3067 3067 3067 3067 3067 3067 3067 3067 3067 3066 3066 3066 3066 3066 3067 3067 3067 3067 3067 3067 3067 3067 3067 3067 3067 3067 3067 3067 3067 3067 3067 3067 3067 3067 3067 3068 3068 3068 3068 3069 3069 3069 3069 3069 3069 3069 3069 3069 3069 3069 3069 3069 3069 3069 3069 3069 3069 3069 3069 3069 3069 3069 3069 3068 3068 3068 3068 3068 3067 3067 3067 3067 3067 3066 3066 3066 3066 3065 3065
3066 3066 3065 3065 3065 3065 3065 3065 3065 3065 3065 3065 3064 3064 3064 3064 3064 3064 3064 3064 3065 3065 3065 3065 3065 3065 3065 3065 3065 3065 3065 3065 3065 3065 3065 3066 3066 3066 3066 3066 3066 3066 3066 3067 3067 3067 3067 3067 3067 3067 3067 3067 3068 3068 3068 3068 3068 3068 3068 3068 3068 3068 3067 3067 3067 3067 3067 3067 3067 3067 3067 3067 3067 3066 3066 3066 3066 3065 3065 3065 3065 3064 3064 3064 3063 3063
3063 3063 3062 3063 3063 3063 3063 3063 3063 3063 3062 3062 3062 3062 3062 3062 3062 3062 3062 3063 3063 3063 3063 3064 3063 3063 3063 3063 3063 3063 3063 3064 3064 3064 3064 3064 3064 3064 3064 3065 3065 3065 3065 3065 3065 3065 3066 3066 3066 3066 3066 3066 3066 3066 3066 3066 3066 3066 3066 3066 3066 3066 3066 3066 3066 3066 3066 3066 3066 3065 3065 3065 3065 3065 3064 3064 3064 3064 3063 3063 3063 3063 3062 3062 3062 3062
3061 3061 3061 3061 3061 3061 3061 3061 3061 3060 3060 3060 3060 3060 3060 3061 3061 3061 3061 3061 3062 3062 3062 3062 3062 3062 3062 3062 3062 3062 3062 3062 3062 3062 3062 3063 3063 3063 3063 3063 3063 3063 3063 3064 3064 3064 3064 3064 3064 3064 3064 3064 3065 3065 3065 3065 3065 3064 3064 3064 3064 3064 3064 3064 3064 3064 3064 3064 3064 3064 3063 3063 3063 3063 3063 3062 3062 3062 3062 3062 3061 3061 3061 3060 3060 3060
3059 3059 3059 3059 3059 3058 3058 3058 3058 3058 3058 3058 3058 3058 3059 3059 3059 3059 3060 3060 3060 3060 3060 3060 3060 3060 3061 3060 3060 3060 3060 3061 3061 3061 3061 3061 3061 3062 3062 3062 3062 3062 3062 3062 3062 3062 3062 3062 3062 3063 3063 3063 3063 3063 3063 3063 3063 3063 3063 3063 3063 3063 3063 3063 3062 3062 3062 3062 3062 3062 3062 3062 3061 3061 3061 3061 3061 3060 3060 3060 3060 3059 3059 3059 3058 3058
3057 3057 3057 3056 3056 3056 3056 3056 3056 3056 3056 3056 3057 3057 3057 3057 3057 3058 3058 3058 3058 3058 3058 3058 3059 3059 3059 3059 3059 3059 3059 3059 3059 3059 3059 3059 3060 3060 3060 3060 3060 3060 3060 3060 3061 3061 3061 3061 3061 3061 3061 3061 3061 3061 3061 3061 3061 3061 3061 3061 3061 3061 3061 3061 3061 3061 3061 3061 3060 3060 3060 3060 3060 3059 3059 3059 3059 3059 3058 3058 3058 3057 3057 3057 3057 3056
3054 3054 3054 3054 3054 3054 3054 3054 3054 3054 3054 3055 3055 3055 3055 3056 3056 3056 3056 3057 3057 3057 3057 3057 3057 3057 3057 3057 3057 3057 3057 3057 3057 3057 3057 3058 3058 3058 3058 3059 3059 3059 3059 3059 3059 3059 3059 3059 3059 3059 3059 3059 3059 3059 3059 3059 3059 3059 3059 3059 3059 3059 3059 3059 3059 3059 3059 3059 3059 3058 3058 3058 3058 3058 3057 3057 3057 3057 3057 3057 3056 3056 3056 3055 3055 3054
3052 3052 3052 3052 3052 3052 3052 3052 3052 3052 3053 3053 3053 3053 3054 3054 3054 3054 3055 3055 3055 3055 3055 3056 3056 3056 3056 3056 3056 3056 3056 3056 3056 3056 3056 3056 3056 3057 3057 3057 3057 3057 3057 3057 3057 3057 3057 3057 3057 3057 3057 3057 3058 3058 3058 3058 3057 3057 3057 3057 3057 3057 3057 3057 3057 3057 3057 3057 3057 3057 3057 3056 3056 3056 3056 3056 3055 3055 3055 3055 3054 3054 3054 3053 3053 3052
3050 3050 3050 3050 3050 3050 3050 3050 3051 3051 3051 3051 3052 3052 3052 3052 3052 3053 3053 3053 3053 3054 3054 3054 3054 3054 3054 3054 3054 3054 3054 3054 3054 3054 3054 3054 3054 3055 3055 3055 3055 3055 3055 3055 3055 3055 3055 3055 3055 3056 3056 3056 3056 3056 3056 3056 3056 3056 3056 3056 3056 3056 3056 3056 3056 3056 3055 3055 3055 3055 3055 3055 3054 3054 3054 3054 3053 3053 3053 3053 3052 3052 3052 3052 3051 3051
3048 3048 3048 3048 3048 3048 3048 3049 3049 3049 3049 3050 3050 3050 3051 3051 3051 3051 3052 3052 3052 3052 3052 3052 3052 3052 3052 3053 3053 3052 3052 3052 3052 3053 3053 3053 3053 3053 3053 3053 3053 3053 3053 3053 3054 3054 3054 3054 3054 3054 3054 3054 3054 3054 3054 3054 3054 3054 3054 3054 3054 3054 3054 3054 3054 3054 3054 3053 3053 3053 3053 3053 3052 3052 3052 3052 3052 3052 3051 3051 3051 3050 3050 3049 3049 3049
3046 3046 3046 3046 3046 3047 3047 3047 3047 3047 3048 3048 3048 3049 3049 3049 3049 3050 3050 3050 3050 3050 3050 3051 3051 3051 3051 3051 3051 3051 3051 3051 3051 3051 3051 3051 3051 3051 3051 3051 3051 3052 3052 3052 3052 3052 3052 3052 3052 3052 3052 3052 3052 3052 3052 3052 3052 3052 3052 3052 3052 3052 3052 3052 3052 3052 3052 3052 3051 3051 3051 3051 3051 3050 3050 3050 3050 3049 3049 3049 3049 3048 3048 3047 3047 3047
3044 3044 3044 3044 3045 3045 3045 3045 3046 3046 3046 3047 3047 3047 3047 3048 3048 3048 3048 3048 3048 3048 3049 3049 3049 3049 3049 3049 3049 3049 3049 3049 3049 3049 3049 3049 3049 3049 3049 3050 3050 3050 3050 3050 3050 3050 3050 3050 3050 3050 3050 3051 3051 3051 3051 3051 3051 3051 3051 3051 3051 3051 3050 3050 3050 3050 3050 3050 3049 3049 3049 3049 3049 3048 3048 3048 3048 3047 3047 3047 3047 3046 3046 3046 3045 3045
3042 3042 3042 3043 3043 3043 3044 3044 3044 3045 3045 3045 3046 3046 3046 3046 3047 3047 3047 3047 3047 3047 3047 3047 3047 3047 3047 3047 3047 3047 3047 3047 3047 3047 3048 3048 3048 3048 3048 3048 3048 3048 3048 3048 3048 3048 3048 3048 3048 3048 3049 3049 3049 3049 3049 3049 3049 3049 3049 3049 3049 3049 3049 3048 3048 3048 3048 3048 3047 3047 3047 3047 3047 3047 3047 3046 3046 3046 3045 3045 3045 3044 3044 3044 3043 3043
3040 3041 3041 3041 3041 3042 3042 3042 3043 3043 3043 3044 3044 3044 3045 3045 3045 3045 3045 3045 3045 3045 3046 3046 3046 3045 3046 3046 3046 3046 3046 3046 3046 3046 3046 3046 3046 3046 3046 3046 3046 3046 3046 3047 3047 3047 3047 3047 3047 3047 3047 3047 3047 3047 3047 3047 3047 3047 3047 3047 3047 3047 3047 3047 3046 3046 3046 3046 3046 3045 3045 3045 3045 3045 3044 3044 3044 3044 3043 3043 3043 3042 3042 3042 3042 3041
3039 3039 3039 3039 3040 3040 3041 3041 3041 3042 3042 3042 3043 3043 3043 3043 3043 3043 3044 3044 3044 3044 3044 3044 3044 3044 3044 3044 3044 3044 3044 3044 3044 3044 3044 3045 3045 3044 3044 3044 3044 3045 3045 3045 3045 3045 3045 3045 3045 3045 3045 3045 3045 3045 3045 3045 3045 3045 3045 3045 3045 3045 3045 3045 3044 3044 3044 3044 3044 3043 3043 3043 3043 3043 3042 3042 3042 3042 3042 3041 3041 3041 3040 3040 3040 3039
3037 3037 3037 3038 3038 3039 3039 3039 3040 3040 3041 3041 3041 3041 3042 3042 3042 3042 3042 3042 3042 3042 3042 3042 3042 3042 3042 3042 3042 3042 3042 3042 3042 3043 3043 3043 3043 3043 3043 3043 3043 3043 3043 3043 3043 3043 3043 3043 3043 3043 3043 3043 3043 3043 3043 3043 3043 3043 3043 3043 3043 3043 3043 3042 3042 3042 3042 3042 3042 3041 3041 3041 3041 3041 3040 3040 3040 3040 3039 3039 3039 3039 3038 3038 3038 3037
3035 3036 3036 3036 3037 3037 3037 3038 3038 3039 3039 3039 3040 3040 3040 3040 3040 3040 3040 3040 3040 3040 3040 3040 3040 3040 3040 3040 3040 3041 3041 3041 3041 3041 3041 3041 3041 3041 3041 3041 3041 3041 3041 3041 3041 3041 3041 3041 3041 3041 3041 3041 3041 3042 3041 3041 3041 3041 3041 3041 3041 3041 3041 3041 3040 3040 3040 3040 3039 3039 3039 3039 3039 3038 3038 3038 3038 3037 3037 3037 3037 3037 3036 3036 3036 3035
3034 3034 3034 3035 3035 3036 3036 3037 3037 3037 3037 3038 3038 3038 3038 3038 3038 3038 3038 3038 3038 3038 3038 3038 3038 3038 3038 3039 3039 3039 3039 3039 3039 3039 3039 3039 3039 3039 3039 3039 3039 3039 3039 3039 3039 3039 3039 3039 3039 3039 3039 3039 3039 3039 3039 3039 3039 3039 3039 3039 3039 3039 3039 3039 3038 3038 3038 3038 3037 3037 3037 3037 3037 3037 3036 3036 3036 3035 3035 3035 3035 3035 3034 3034 3034 3033
3032 3032 3033 3033 3034 3034 3035 3035 3035 3036 3036 3036 3036 3036 3036 3037 3037 3037 3037 3037 3037 3037 3037 3037 3037 3037 3037 3037 3037 3037 3037 3037 3037 3037 3037 3037 3037 3037 3037 3038 3037 3037 3037 3037 3037 3037 3037 3037 3037 3037 3037 3037 3037 3037 3037 3037 3037 3037 3037 3037 3037 3037 3037 3037 3036 3036 3036 3036 3035 3035 3035 3035 3035 3034 3034 3034 3034 3033 3033 3033 3033 3032 3032 3032 3032 3032
3031 3031 3032 3032 3032 3033 3033 3033 3033 3034 3034 3034 3034 3034 3034 3035 3035 3035 3035 3035 3035 3035 3035 3035 3035 3035 3035 3035 3035 3035 3035 3036 3036 3036 3036 3036 3036 3036 3036 3036 3036 3036 3036 3036 3036 3036 3036 3035 3035 3035 3035 3035 3035 3035 3035 3035 3035 3035 3035 3035 3035 3035 3034 3034 3034 3034 3034 3033 3033 3033 3033 3033 3032 3032 3032 3032 3032 3031 3031 3031 3031 3031 3030 3030 3030 3030
3029 3029 3030 3030 3031 3031 3031 3032 3032 3032 3032 3032 3032 3032 3033 3033 3033 3033 3033 3033 3033 3033 3033 3033 3033 3033 3033 3033 3033 3033 3034 3034 3034 3034 3034 3034 3034 3034 3034 3034 3034 3034 3034 3034 3034 3034 3034 3033 3033 3033 3033 3033 3033 3033 3033 3033 3033 3032 3032 3032 3032 3032 3032 3032 3032 3032 3032 3031 3031 3031 3031 3030 3030 3030 3030 3030 3029 3029 3029 3029 3029 3028 3028 3028 3028 3028
3027 3027 3028 3028 3029 3029 3029 3030 3030 3030 3031 3031 3031 3031 3031 3031 3031 3031 3031 3031 3032 3032 3032 3032 3032 3032 3032 3032 3032 3032 3032 3032 3032 3032 3032 3032 3032 3032 3032 3032 3032 3032 3032 3032 3032 3032 3032 3032 3031 3031 3031 3031 3031 3031 3031 3031 3031 3030 3030 3030 3030 3030 3030 3030 3029 3029 3029 3029 3029 3028 3028 3028 3028 3027 3027 3027 3027 3027 3027 3027 3027 3026 3026 3026 3026 3026
3025 3026 3026 3027 3027 3027 3027 3028 3028 3028 3029 3029 3029 3029 3029 3029 3029 3029 3029 3030 3030 3030 3030 3030 3030 3030 3030 3030 3030 3030 3030 3030 3030 3030 3030 3030 3030 3030 3030 3030 3030 3030 3030 3030 3030 3030 3030 3030 3029 3029 3029 3029 3029 3029 3029 3029 3029 3028 3028 3028 3027 3027 3027 3027 3027 3027 3027 3027 3026 3026 3026 3026 3025 3025 3025 3025 3025 3025 3024 3024 3024 3024 3024 3024 3024 3023
3024 3024 3025 3025 3025 3026 3026 3026 3026 3027 3027 3027 3027 3027 3027 3027 3027 3027 3028 3028 3028 3028 3028 3028 3028 3028 3028 3028 3028 3028 3028 3028 3028 3028 3028 3028 3028 3028 3028 3028 3028 3028 3028 3028 3028 3028 3028 3027 3027 3027 3027 3027 3026 3026 3026 3026 3026 3026 3026 3026 3025 3025 3025 3024 3024 3024 3024 3024 3024 3023 3023 3023 3023 3023 3023 3022 3022 3022 3022 3022 3022 3022 3022 3022 3021 3021
3022 3022 3023 3023 3023 3023 3024 3024 3024 3025 3025 3025 3025 3025 3026 3026 3026 3026 3026 3026 3026 3026 3026 3026 3026 3026 3026 3026 3026 3026 3026 3026 3026 3026 3026 3026 3026 3026 3027 3027 3026 3026 3026 3026 3026 3026 3026 3026 3025 3025 3025 3024 3024 3023 3023 3023 3023 3023 3023 3023 3023 3022 3022 3022 3022 3022 3022 3022 3021 3021 3021 3021 3021 3020 3020 3020 3020 3020 3020 3019 3019 3019 3019 3019 3019 3018
3020 3021 3021 3021 3021 3022 3022 3022 3022 3022 3023 3023 3023 3023 3023 3024 3024 3024 3024 3024 3024 3024 3024 3024 3024 3024 3024 3024 3024 3024 3024 3024 3024 3024 3024 3024 3024 3024 3024 3024 3024 3024 3024 3024 3024 3024 3024 3024 3023 3023 3022 3022 3022 3021 3021 3021 3021 3021 3021 3020 3020 3020 3019 3019 3019 3019 3019 3019 3019 3018 3018 3018 3018 3018 3018 3017 3017 3017 3017 3017 3017 3017 3017 3016 3016 3016
3018 3019 3019 3019 3019 3020 3020 3020 3020 3020 3021 3021 3021 3021 3022 3022 3022 3022 3022 3022 3022 3022 3022 3022 3022 3022 3022 3022 3022 3022 3022 3022 3022 3022 3022 3022 3022 3022 3022 3022 3022 3022 3022 3022 3022 3022 3022 3022 3021 3021 3021 3020 3020 3019 3019 3018 3017 3017 3017 3017 3017 3017 3017 3017 3017 3017 3017 3016 3016 3016 3016 3016 3015 3015 3015 3015 3015 3015 3015 3014 3014 3014 3014 3014 3014 3014
3017 3017 3017 3017 3018 3018 3018 3018 3018 3018 3019 3019 3019 3020 3020 3020 3020 3020 3020 3020 3020 3020 3020 3020 3020 3020 3020 3020 3020 3020 3020 3020 3021 3021 3020 3020 3020 3020 3020 3020 3020 3020 3020 3020 3020 3020 3019 3019 3019 3019 3018 3018 3018 3017 3017 3016 3015 3014 3014 3014 3014 3014 3014 3014 3014 3014 3014 3014 3013 3013 3013 3013 3013 3013 3013 3012 3012 3012 3012 3012 3012 3012 3012 3012 3012 3012
3015 3015 3016 3016 3016 3016 3016 3016 3017 3017 3017 3017 3017 3018 3018 3018 3018 3018 3018 3018 3018 3018 3018 3018 3018 3018 3018 3018 3018 3018 3018 3018 3018 3018 3018 3018 3018 3018 3018 3018 3017 3017 3018 3018 3017 3017 3017 3017 3017 3016 3016 3016 3016 3015 3015 3014 3012 3012 3011 3011 3011 3011 3011 3011 3011 3011 3011 3011 3011 3011 3010 3010 3010 3010 3010 3010 3010 3010 3009 3009 3009 3009 3009 3009 3009 3009
3013 3013 3014 3014 3014 3014 3014 3015 3015 3015 3015 3016 3016 3016 3016 3016 3016 3016 3016 3016 3016 3016 3016 3016 3016 3016 3016 3016 3016 3016 3016 3016 3016 3016 3016 3016 3016 3016 3016 3015 3015 3015 3015 3015 3015 3015 3014 3014 3014 3014 3013 3013 3013 3013 3013 3012 3010 3009 3008 3008 3008 3008 3008 3008 3008 3008 3008 3008 3008 3008 3007 3007 3008 3008 3008 3007 3007 3007 3007 3007 3007 3007 3007 3007 3007 3007
3011 3012 3012 3012 3012 3012 3012 3012 3013 3013 3013 3013 3013 3014 3014 3014 3014 3014 3014 3014 3014 3014 3014 3014 3014 3014 3014 3014 3014 3014 3014 3014 3014 3014 3013 3013 3013 3013 3013 3013 3013 3013 3012 3012 3012 3012 3012 3012 3011 3011 3011 3011 3011 3011 3010 3009 3008 3007 3006 3005 3005 3005 3006 3005 3005 3005 3005 3005 3005 3005 3005 3005 3005 3005 3005 3005 3005 3004 3004 3004 3004 3004 3004 3004 3004 3004
3009 3009 3009 3010 3010 3010 3010 3010 3011 3011 3011 3011 3012 3012 3012 3012 3012 3012 3012 3012 3012 3012 3012 3012 3012 3012 3012 3011 3011 3011 3011 3012 3011 3011 3011 3011 3011 3011 3011 3010 3010 3010 3010 3010 3010 3009 3009 3009 3009 3008 3008 3008 3008 3008 3007 3007 3006 3005 3004 3003 3002 3002 3002 3002 3002 3002 3002 3002 3002 3002 3002 3002 3002 3002 3002 3002 3002 3002 3002 3001 3001 3001 3001 3001 3001 3001
3007 3007 3007 3007 3008 3008 3008 3008 3008 3009 3009 3009 3009 3009 3009 3009 3009 3009 3009 3009 3009 3009 3009 3009 3009 3009 3009 3009 3008 3008 3009 3009 3009 3009 3008 3008 3008 3008 3008 3008 3007 3007 3007 3007 3007 3007 3007 3006 3006 3006 3006 3005 3005 3005 3004 3003 3003 3002 3001 3001 3000 3000 3000 2999 2999 2998 2998 2998 2999 2999 2999 2999 3000 3000 3000 2999 2999 2999 2999 2998 2998 2998 2998 2998 2998 2998
3004 3005 3005 3005 3005 3006 3006 3006 3006 3006 3006 3007 3007 3007 3007 3007 3007 3007 3007 3007 3007 3007 3007 3007 3007 3006 3006 3006 3006 3006 3006 3006 3006 3006 3006 3006 3005 3005 3005 3005 3005 3005 3004 3004 3004 3004 3004 3003 3003 3003 3003 3002 3002 3002 3002 3001 3000 2999 2999 2998 2998 2997 2997 2997 2996 2995 2995 2995 2996 2996 2996 2996 2997 2997 2997 2997 2997 2997 2996 2996 2995 2995 2995 2995 2995 2995
3002 3002 3002 3003 3003 3003 3003 3003 3004 3004 3004 3004 3004 3004 3004 3005 3005 3004 3004 3004 3004 3004 3004 3004 3004 3004 3003 3003 3003 3003 3003 3003 3003 3003 3003 3003 3002 3002 3002 3002 3002 3002 3002 3001 3001 3001 3001 3001 3000 3000 3000 3000 2999 2999 2999 2998 2997 2996 2996 2996 2995 2995 2995 2994 2993 2993 2992 2992 2992 2993 2993 2993 2993 2993 2993 2993 2994 2994 2993 2993 2993 2992 2992 2992 2992 2992
3000 3000 3000 3000 3001 3001 3001 3001 3001 3001 3002 3002 3002 3002 3002 3002 3002 3002 3002 3002 3001 3001 3001 3001 3001 3001 3001 3001 3001 3000 3000 3000 3000 3000 3000 3000 3000 3000 2999 2999 2999 2999 2998 2998 2998 2998 2998 2997 2997 2997 2997 2997 2996 2996 2996 2995 2994 2994 2993 2993 2993 2992 2992 2992 2991 2990 2990 2990 2990 2990 2990 2990 2990 2990 2990 2991 2991 2991 2991 2991 2990 2990 2989 2989 2989 2989
2997 2997 2998 2998 2998 2998 2998 2998 2999 2999 2999 2999 2999 2999 2999 2999 2999 2999 2999 2999 2999 2999 2998 2998 2998 2999 2998 2998 2998 2998 2998 2997 2997 2997 2997 2997 2997 2997 2997 2996 2996 2996 2995 2995 2995 2995 2995 2995 2995 2994 2994 2993 2992 2992 2992 2992 2992 2991 2991 2990 2990 2989 2989 2989 2988 2988 2987 2987 2987 2987 2987 2987 2987 2987 2987 2987 2988 2988 2988 2988 2988 2987 2987 2987 2987 2987